Orbital Elements at Epoch 2459200.5 (2020-Dec-17.0) TDB
Reference: JPL 32 (heliocentric ecliptic J2000)
Element | Value | Uncertainty (1-sigma) | Units |
e | .161687849268169 | 3.3415e-08 | |
a | 2.455660350087832 | 8.0745e-09 | au |
q | 2.058609909549012 | 8.2478e-08 | au |
i | 3.398626677586225 | 3.9897e-06 | deg |
node | 136.5662823389928 | 4.883e-05 | deg |
peri | 147.3329811206117 | 4.9966e-05 | deg |
M | 252.9275798465112 | 1.0178e-05 | deg |
tp | 2459618.547848115554 (2022-Feb-08.04784812) | 4.0392e-05 | TDB |
period | 1405.564804698175 3.85 | 6.9325e-06 1.898e-08 | d yr |
n | .2561247968052991 | 1.2633e-09 | deg/d |
Q | 2.852710790626653 | 9.38e-09 | au |
|
| | Orbit Determination Parameters
Additional Information
|